Location: Coll
(42.4728°N, 0.7714°E)
Time: 07:10:49
(UTC+00:00)

Cosmos 2082 Rocket - Pass Details

Date: 23 October 2020
Orbit: 833 x 854 km, 71.0° (Epoch: 23 November)

Event Time Altitude Azimuth Distance (km) Brightness Sun altitude
Rises 05:02:08 0° 187° (S) 3,364 5.3 -15.0°
Reaches altitude 10° 05:04:38 10° 182° (S) 2,434 4.6 -14.5°
Maximum altitude 05:09:59 50° 108° (ESE) 1,052 3.2 -13.5°
Drops below altitude 10° 05:15:23 10° 34° (NE) 2,451 5.0 -12.5°
Sets 05:17:53 0° 30° (NNE) 3,391 5.7 -12.1°
